Home   Weather   Kalgoorlie   Past weeks
Flag for Australia

Past Weather in Kalgoorlie, Western Australia, Australia — Yesterday and Last 2 Weeks

Now
73 °F

Sunny.


Feels Like: 77 °F
Forecast: 75 / 52 °F
Wind: 10 mph from East

Location: Kalgoorlie Boulder Amo

Current Time: Apr 24, 2019 at 12:13:49 pm

Latest Report: Apr 24, 2019 at 11:30 am


Visibility: N/A

Pressure: 30.33 "Hg

Humidity: 36%

Dew Point: 45 °F

Location of KalgoorlieLocation

Past Weather in Kalgoorlie — Graph

°F

Kalgoorlie Temperature Yesterday

Maximum temperature yesterday: 75 °F (at 3:30 pm)
Minimum temperature yesterday: 52 °F (at 5:30 am)
Average temperature yesterday: 63 °F

High & Low Weather Summary for the Past Weeks

 TemperatureHumidityPressure
High100 °F (Apr 10, 3:30 pm)100% (Apr 12, 3:30 am)30.39 "Hg (Apr 12, 3:30 am)
Low39 °F (Apr 21, 6:00 am)11% (Apr 11, 3:00 pm)29.74 "Hg (Apr 19, 2:00 am)
Average66 °F59%30.08 "Hg
* Reported Apr 9 11:00 am — Apr 24 11:00 am, Kalgoorlie. Weather by CustomWeather, © 2019

Note: Actual official high and low records may vary slightly from our data, if they occured in-between our weather recording intervals... More about our weather records

Advertising

Kalgoorlie Weather History for the Previous 24 Hours

Scroll right to see more
 ConditionsComfort  
Time TempWeatherWind HumidityBarometerVisibility
11:00 am
Wed, Apr 24
72 °FSunny.12 mph38%30.36 "HgN/A
10:30 am70 °FSunny.9 mph40%30.36 "HgN/A
10:00 am68 °FSunny.7 mph40%30.39 "HgN/A
9:30 am66 °FSunny.6 mph46%30.39 "HgN/A
9:00 am64 °FSunny.6 mph46%30.39 "HgN/A
8:30 am63 °FSunny.5 mph49%30.39 "HgN/A
8:00 am59 °FSunny.6 mph59%30.36 "HgN/A
7:30 am55 °FSunny.5 mph63%30.36 "HgN/A
7:00 am52 °FSunny.3 mph72%30.36 "HgN/A
6:30 am48 °FSunny.3 mph76%30.33 "HgN/A
6:00 am50 °FClear.5 mph71%30.33 "HgN/A
5:00 am52 °FClear.3 mph67%30.33 "HgN/A
4:30 am52 °FClear.5 mph67%30.33 "HgN/A
4:00 am50 °FClear.5 mph71%30.30 "HgN/A
3:30 am55 °FClear.6 mph59%30.30 "HgN/A
3:00 am57 °FClear.3 mph55%30.30 "HgN/A
2:30 am59 °FClear.6 mph55%30.30 "HgN/A
2:00 am61 °FClear.5 mph48%30.30 "HgN/A
1:30 am61 °FClear.7 mph48%30.30 "HgN/A
1:00 am63 °FClear.8 mph45%30.30 "HgN/A
12:30 am63 °FClear.8 mph45%30.30 "HgN/A
12:00 am59 °FClear.6 mph51%30.30 "HgN/A
11:30 pm
Tue, Apr 23
61 °FClear.7 mph48%30.30 "HgN/A
11:00 pm57 °FClear.5 mph55%30.30 "HgN/A
10:30 pm59 °FClear.5 mph51%30.30 "HgN/A
10:00 pm61 °FClear.5 mph45%30.30 "HgN/A
9:30 pm61 °FClear.7 mph45%30.30 "HgN/A
9:00 pm61 °FClear.6 mph48%30.30 "HgN/A
8:30 pm63 °FClear.6 mph42%30.27 "HgN/A
8:00 pm61 °FClear.6 mph48%30.30 "HgN/A
7:30 pm63 °FClear.6 mph42%30.27 "HgN/A
7:00 pm63 °FClear.No wind42%30.27 "HgN/A
6:30 pm66 °FClear.3 mph37%30.27 "HgN/A
6:00 pm66 °FClear.6 mph37%30.24 "HgN/A
5:30 pm70 °FClear.8 mph33%30.24 "HgN/A
5:00 pm72 °FSunny.10 mph31%30.24 "HgN/A
4:30 pm73 °FSunny.9 mph29%30.24 "HgN/A
4:00 pm75 °FSunny.8 mph27%30.24 "HgN/A
3:30 pm75 °FSunny.8 mph27%30.24 "HgN/A
3:00 pm73 °FSunny.7 mph29%30.21 "HgN/A
2:30 pm73 °FSunny.8 mph31%30.24 "HgN/A
2:00 pm73 °FSunny.6 mph31%30.24 "HgN/A
1:30 pm73 °FSunny.7 mph29%30.24 "HgN/A
1:00 pm72 °FSunny.9 mph33%30.24 "HgN/A
12:30 pm70 °FSunny.10 mph33%30.27 "HgN/A
12:00 pm72 °FSunny.8 mph33%30.27 "HgN/A
Weather by CustomWeather, © 2019

See weather overview